Погода в Гладковичах

Украина / Житомирская область     51°20′17″N   28°53′50″E
темп.,
°C
ветер,
м/с
пор.,
м/с
влажн.,
%
обл.,
%
осадки,
мм/ч
давл.,
гПа
погр.,
м
24 мая, вт
вт2400:00+7ссз22662 0.0 101313
03:00+6с227438 0.0 101317
06:00+7сз22721 0.0 101412
09:00+13ссз23535 0.0 1014447
12:00+17с34418 0.0 10142018
15:00+19с233681 0.0 10132388
18:00+16вюв466043 0.0 1014417
21:00+12юв22674 0.0 101511
25 мая, ср
ср2500:00+9ю227558 0.0 101711
03:00+9ююз2272100 0.0 101720
06:00+9юз3476100 0.0 101856
09:00+16ююз3457100 0.0 1018353
12:00+19ю3442100 0.0 10171734
15:00+20ююз5541100 0.0 10172003
18:00+18ююз4656100 0.0 10161294
21:00+14ю4873100 0.0 1015280
26 мая, чт
чт2600:00+14ююв51278100 0.2 1014501
03:00+12ююв51095100 8.3 1011425
06:00+12зюз41098100 7.8 1009515
09:00+12сз9168971 7.9 1011953
12:00+17сз913552 0.1 10131851
15:00+19сз712579 0.2 10132098
18:00+18зсз7125835 0.0 10131537
21:00+14з410735 0.1 1013242
27 мая, пт
пт2700:00+13зюз514785 0.0 1013440
03:00+12з513856 0.0 1013474
06:00+11з512915 0.0 1014475
09:00+15з711685 0.0 10131192
12:00+18з61055100 0.0 10121883
15:00+19зюз71259100 0.0 10101908
18:00+20юз8156599 0.1 10071520
21:00+14сз71294100 2.6 1008700
28 мая, сб
сб2800:00+10зюз51194100 1.9 1008539
03:00+10з61292100 2.1 1008739
06:00+8зюз513949 0.0 1008539
09:00+12з710706 0.0 10081250
12:00+15з8125088 0.3 10082453
15:00+15з81148100 0.4 10092461
18:00+14з6106198 0.3 10101609
21:00+10зюз510760 0.4 1010347